Location: Killam
(52.7910°N, 111.8608°W)
Time: 21:50:43
(UTC+00:00)

SR - All Passes

Search period start: 18 February 2026 00:00
Search period end: 28 February 2026 00:00
Orbit: 574 x 847 km, 66.7° (Epoch: 18 February)

Date Brightness Start Highest point End Pass type
(mag) Time Alt. Az. Time Alt. Az. Time Alt. Az.
18 Feb - 11:10:41 10° SSE 11:13:49 20° ESE 11:17:02 10° ENE visible
18 Feb - 12:50:41 10° SW 12:54:57 69° NW 12:59:30 10° NE visible
18 Feb - 14:34:02 10° WNW 14:37:27 21° NNW 14:41:03 10° NNE daylight
18 Feb - 16:18:06 10° NNW 16:20:49 15° N 16:23:40 10° NE daylight
18 Feb - 18:00:11 10° NNW 18:04:07 24° NNE 18:08:17 10° E daylight
18 Feb - 19:41:34 10° NW 19:46:29 77° NE 19:51:48 10° SE daylight
18 Feb - 21:23:52 10° WNW 21:27:46 23° WSW 21:31:54 10° SSW daylight
19 Feb - 11:55:50 10° SSW 12:00:01 61° SE 12:04:29 10° NE visible
19 Feb - 13:38:08 10° W 13:42:01 30° NNW 13:46:07 10° NNE visible
19 Feb - 15:22:21 10° NW 15:25:08 16° N 15:28:03 10° NNE daylight
19 Feb - 17:05:14 10° NNW 17:08:35 19° NNE 17:12:06 10° ENE daylight
19 Feb - 18:46:42 10° NNW 18:51:23 45° NE 18:56:25 10° ESE daylight
19 Feb - 20:28:24 10° NW 20:33:07 43° WSW 20:38:09 10° S daylight
20 Feb - 11:01:38 10° S 11:05:19 29° ESE 11:09:11 10° NE visible
20 Feb - 12:42:33 10° WSW 12:46:45 50° NW 12:51:14 10° NE visible
20 Feb - 14:26:19 10° WNW 14:29:30 19° NNW 14:32:50 10° NNE daylight
20 Feb - 16:10:04 10° NNW 16:12:57 16° N 16:15:57 10° NE daylight
20 Feb - 17:51:51 10° NNW 17:56:06 30° NNE 18:00:37 10° E daylight
20 Feb - 19:33:18 10° NW 19:38:15 80° SW 19:43:36 10° SSE daylight
20 Feb - 21:16:11 10° WNW 21:19:18 16° WSW 21:22:34 10° SSW daylight
21 Feb - 10:08:34 10° SE 10:10:50 14° ESE 10:13:09 10° ENE visible
21 Feb - 11:47:25 10° SW 11:51:42 87° SE 11:56:17 10° NE visible
21 Feb - 13:30:19 10° W 13:33:59 25° NNW 13:37:52 10° NNE visible
21 Feb - 15:14:31 10° NW 15:17:16 15° N 15:20:06 10° NE daylight
21 Feb - 16:56:58 10° NNW 17:00:38 21° NNE 17:04:32 10° ENE daylight
21 Feb - 18:38:22 10° NW 18:43:14 60° NE 18:48:29 10° SE daylight
21 Feb - 20:20:19 10° NW 20:24:44 31° WSW 20:29:25 10° S daylight
22 Feb - 10:52:51 10° S 10:56:53 43° ESE 11:01:10 10° NE visible
22 Feb - 12:34:33 10° WSW 12:38:37 38° NW 12:42:58 10° NNE visible
22 Feb - 14:18:36 10° NW 14:21:35 17° NNW 14:24:42 10° NNE daylight
22 Feb - 16:01:55 10° NNW 16:05:04 17° NNE 16:08:20 10° NE daylight
22 Feb - 17:43:31 10° NNW 17:48:02 37° NE 17:52:53 10° ESE daylight
22 Feb - 19:25:04 10° NW 19:29:58 58° WSW 19:35:14 10° SSE daylight
22 Feb - 21:09:12 10° W 21:10:46 11° WSW 21:12:22 10° WSW daylight
23 Feb - 09:59:04 10° SSE 10:02:17 21° ESE 10:05:38 10° ENE visible
23 Feb - 11:39:10 10° SW 11:43:27 67° NW 11:48:03 10° NE visible
23 Feb - 13:22:34 10° WNW 13:25:59 21° NNW 13:29:36 10° NNE visible
23 Feb - 15:06:35 10° NW 15:09:23 15° N 15:12:18 10° NE daylight
23 Feb - 16:48:39 10° NNW 16:52:40 25° NNE 16:56:55 10° E daylight
23 Feb - 18:30:04 10° NW 18:35:01 79° NE 18:40:24 10° SE daylight
23 Feb - 20:12:23 10° WNW 20:16:18 23° WSW 20:20:25 10° SSW daylight
24 Feb - 10:44:17 10° SSW 10:48:31 63° ESE 10:53:01 10° NE visible
24 Feb - 12:26:39 10° W 12:30:32 30° NNW 12:34:40 10° NNE visible
24 Feb - 14:10:51 10° NW 14:13:41 16° N 14:16:39 10° NNE daylight
24 Feb - 15:53:42 10° NNW 15:57:08 19° NNE 16:00:45 10° ENE daylight
24 Feb - 17:35:10 10° NNW 17:39:55 47° NE 17:45:02 10° ESE daylight
24 Feb - 19:16:54 10° NW 19:21:37 42° WSW 19:26:41 10° S daylight
25 Feb - 09:50:02 10° S 09:53:47 30° ESE 09:57:45 10° NE visible
25 Feb - 11:31:03 10° WSW 11:35:15 49° NW 11:39:47 10° NE visible
25 Feb - 13:14:50 10° WNW 13:18:02 19° NNW 13:21:24 10° NNE visible
25 Feb - 14:58:32 10° NNW 15:01:30 16° N 15:04:35 10° NE daylight
25 Feb - 16:40:19 10° NNW 16:44:38 30° NNE 16:49:15 10° E daylight
25 Feb - 18:21:46 10° NW 18:26:47 78° SW 18:32:10 10° SSE daylight
25 Feb - 20:04:43 10° WNW 20:07:49 16° WSW 20:11:01 10° SW daylight
26 Feb - 08:56:52 10° SE 08:59:18 15° ESE 09:01:47 10° ENE visible
26 Feb - 10:35:53 10° SW 10:40:11 90° SE 10:44:49 10° NE visible
26 Feb - 12:18:48 10° W 12:22:29 25° NNW 12:26:24 10° NNE visible
26 Feb - 14:02:59 10° NW 14:05:47 15° N 14:08:43 10° NE daylight
26 Feb - 15:45:25 10° NNW 15:49:10 22° NNE 15:53:10 10° ENE daylight
26 Feb - 17:26:50 10° NW 17:31:45 61° NE 17:37:03 10° SE daylight
26 Feb - 19:08:49 10° NW 19:13:14 30° WSW 19:17:55 10° S daylight
27 Feb - 09:41:16 10° SSW 09:45:21 44° ESE 09:49:42 10° NE visible
27 Feb - 11:23:02 10° WSW 11:27:07 37° NW 11:31:30 10° NNE visible
27 Feb - 13:07:05 10° NW 13:10:06 17° NNW 13:13:16 10° NNE visible
27 Feb - 14:50:22 10° NNW 14:53:35 18° NNE 14:56:58 10° NE daylight
27 Feb - 16:31:58 10° NNW 16:36:34 38° NE 16:41:29 10° ESE daylight
27 Feb - 18:13:32 10° NW 18:18:28 57° WSW 18:23:46 10° SSE daylight
27 Feb - 19:57:50 10° W 19:59:16 11° WSW 20:00:42 10° WSW daylight
